CZ-6A DEB

Satellite information

Favourite Embed

Satellite Type and Status

DEBRISIN ORBIT

Key statistics

Satellite CZ-6A DEB at a glance.

Uptime

1129

Days in orbit

Revolutions

≈ 14.2

Per day

Orbit

SSO

Sun Synchronous Orbit

Inclination

98.8

Latest

Satellite identification and parameters

Extended collection of information and parameters for CZ-6A DEB.

Object identification

Identified? True

Debris? True

Object name: CZ-6A DEB

International designator: 2022-151AHZ

Object number (NORAD): 58431

Object ID (CCSDS): 58431

Country: PEOPLES REPUBLIC OF CHINA (PRC)

Current information (Y/N): Y

RCS size: SMALL

Orbital parameters

Period: 101.296 minutes

Inclination: 98.8375 deg

SMA: 7198.141 km

Apoapsis: 857.138 km

Periapsis: 782.874 km

RAAN: 351.8156 deg

Eccentricy: 0.0051585

Argument of periapsis: 140.5839 deg

Mean anomaly: 219.9109 deg

Mean motion: 14.21583036 rev/day

Mean motion (dot): 0.00007067 rev/day2

B* drag term: 0.0031981 1/REarth

Two-line elements (TLE)

Creation date: Dec. 12, 2025, 7:16 a.m.

Reference frame: TEME

Reference center: EARTH

Epoch: Dec. 11, 2025, 11:12 p.m. UTC

TLE line 0: 0 CZ-6A DEB

TLE line 1: 1 58431U 22151AHZ 25345.96676067 .00007067 00000-0 31981-2 0 9992

TLE line 2: 2 58431 98.8375 351.8156 0051585 140.5839 219.9109 14.21583036140151

Live tracking on map

Real-time ground track for satellite CZ-6A DEB.

In-orbit conjunctions

A list of the most updated potential collisions computed for object CZ-6A DEB.

Target Orbit TCA Probability of collision Miss distance Type
DMSP 5D-2 F9 (USA 29) SSO 2025-05-07 03:30:43 0.0001003066 302.0 (m) PAYLOAD
CZ-6A DEB LEO 2025-02-23 02:44:42 0.0001231641 869.0 (m) DEBRIS
CZ-4C DEB SSO 2024-11-08 14:24:10 0.0004400439 216.0 (m) DEBRIS

Associated space launch

Chinese satellite reported for atmospheric/ocean/environmental/spatial parameter research purposes, details TBD.

CZ-6A DEB was lifted into orbit during the mission ‘Long March 6A | Yunhai 3’, on board a Long March 6A space rocket.

The launch took place on Nov. 11, 2022, 10:52 p.m. from Launch Complex 9A.

For more information about the launch, click the button.

Launch to space Long March 6A | Yunhai 3
Long March 6A | Yunhai 3

Agency: N/A

Status: Launch Successful

Launch date: Nov. 11, 2022, 10:52 p.m. UTC

Rocket: Long March 6A

Launch pad: Launch Complex 9A

Location: Taiyuan Satellite Launch Center, People's Republic of China

...

Latest news about this satellite

There are no fresh news available about this satellite. Check back as we update our databases every day.


Newsletter sign-up

Weekly statistics, charts and insights to help you stay on top of the space industry.